Location: Kikino
(54.4440°N, 112.0940°W)
Time: 19:27:33
(UTC+00:00)

A-11 Canister half - Pass Details

Date: 25 May 2024
Orbit: 1525 x 1683 km, 47.3° (Epoch: 12 June)

Event Time Altitude Azimuth Distance (km) Brightness Sun altitude
Rises 01:54:06 0° 175° (S) 4,667 11.3 12.9°
Reaches altitude 10° 01:59:26 10° 150° (SSE) 3,706 10.6 12.2°
Maximum altitude 02:03:07 13° 126° (SE) 3,491 10.4 11.7°
Drops below altitude 10° 02:06:50 10° 102° (ESE) 3,748 10.5 11.2°
Sets 02:12:15 0° 77° (ENE) 4,771 11.1 10.5°
